When you browse on this site, cookies collect data to enhance your experience and personalize the content and advertising you see.
Visit our Privacy Policy to learn more. By continuing to use the site, you agree to this use of cookies and data.
  • In Netherlands
  • List of Countries
  • For 7 days
  • Water Temperature
  • Satellite Maps
  • Weather Map
  • Weather Widgets
  • user-avatar
    Login

    Hourly Weather Nowogard

    Today, 26 June, Wednesday

    Time Temperature Precipitation Wind Pressure Humidity
    00:00 +22°C° 0 mm 3 mps 760 mmHg 90%
    01:00 +22°C° 0 mm 3 mps 760 mmHg 89%
    02:00 +22°C° 0 mm 3 mps 760 mmHg 88%
    03:00 +21°C° 0 mm 3 mps 759 mmHg 88%
    04:00 +21°C° 0 mm 3 mps 759 mmHg 88%
    05:00 +24°C° 0 mm 3 mps 759 mmHg 84%
    06:00 +25°C° 0 mm 3 mps 759 mmHg 80%
    07:00 +27°C° 0 mm 3 mps 759 mmHg 76%
    08:00 +28°C° 0 mm 3 mps 759 mmHg 71%
    09:00 +30°C° 0 mm 3 mps 758 mmHg 66%
    10:00 +33°C° 0 mm 3 mps 758 mmHg 61%
    11:00 +34°C° 0 mm 4 mps 758 mmHg 57%
    12:00 +34°C° 0 mm 4 mps 758 mmHg 54%
    13:00 +35°C° 0 mm 5 mps 758 mmHg 51%
    14:00 +34°C° 0.1 mm 5 mps 758 mmHg 55%
    15:00 +33°C° 0.1 mm 5 mps 757 mmHg 60%
    16:00 +33°C° 0.1 mm 5 mps 757 mmHg 65%
    17:00 +29°C° 0.5 mm 5 mps 757 mmHg 69%
    18:00 +27°C° 0.5 mm 6 mps 757 mmHg 74%
    19:00 +24°C° 0.5 mm 6 mps 757 mmHg 78%
    20:00 +23°C° 0 mm 5 mps 758 mmHg 82%
    21:00 +22°C° 0 mm 5 mps 758 mmHg 86%
    22:00 +20°C° 0 mm 4 mps 758 mmHg 89%
    23:00 +19°C° 0 mm 5 mps 759 mmHg 86%

    Tomorrow, 27 June, Thursday

    Time Temperature Precipitation Wind Pressure Humidity
    00:00 +19°C° 0 mm 6 mps 759 mmHg 83%
    01:00 +17°C° 0 mm 6 mps 759 mmHg 80%
    02:00 +16°C° 0 mm 6 mps 759 mmHg 79%
    03:00 +15°C° 0 mm 5 mps 759 mmHg 77%
    04:00 +13°C° 0 mm 5 mps 759 mmHg 75%
    05:00 +14°C° 0 mm 5 mps 759 mmHg 74%
    06:00 +14°C° 0 mm 6 mps 759 mmHg 73%
    07:00 +15°C° 0 mm 6 mps 759 mmHg 72%
    08:00 +16°C° 0 mm 6 mps 759 mmHg 71%
    09:00 +16°C° 0 mm 7 mps 759 mmHg 70%
    10:00 +17°C° 0 mm 7 mps 760 mmHg 69%
    11:00 +18°C° 0 mm 7 mps 760 mmHg 69%
    12:00 +19°C° 0 mm 6 mps 760 mmHg 68%
    13:00 +20°C° 0 mm 6 mps 760 mmHg 68%
    14:00 +20°C° 0 mm 6 mps 760 mmHg 70%
    15:00 +20°C° 0 mm 6 mps 760 mmHg 71%
    16:00 +20°C° 0 mm 6 mps 759 mmHg 73%
    17:00 +20°C° 0 mm 5 mps 759 mmHg 76%
    18:00 +20°C° 0 mm 4 mps 759 mmHg 79%
    19:00 +19°C° 0 mm 3 mps 759 mmHg 82%
    20:00 +18°C° 0.1 mm 3 mps 760 mmHg 86%
    21:00 +17°C° 0.1 mm 3 mps 760 mmHg 91%
    22:00 +16°C° 0.1 mm 2 mps 760 mmHg 95%
    23:00 +16°C° 0.1 mm 3 mps 760 mmHg 96%

    Day after tomorrow, 28 June, Friday

    Time Temperature Precipitation Wind Pressure Humidity
    00:00 +16°C° 0.1 mm 3 mps 760 mmHg 96%
    01:00 +16°C° 0.1 mm 3 mps 760 mmHg 96%
    02:00 +16°C° 0 mm 3 mps 760 mmHg 96%
    03:00 +14°C° 0 mm 3 mps 760 mmHg 96%
    04:00 +14°C° 0 mm 3 mps 760 mmHg 96%
    05:00 +16°C° 0 mm 3 mps 760 mmHg 92%
    06:00 +18°C° 0 mm 3 mps 760 mmHg 88%
    07:00 +19°C° 0 mm 3 mps 761 mmHg 84%
    08:00 +20°C° 0 mm 4 mps 761 mmHg 74%
    09:00 +21°C° 0 mm 4 mps 761 mmHg 63%
    10:00 +22°C° 0 mm 4 mps 761 mmHg 52%
    11:00 +23°C° 0 mm 4 mps 761 mmHg 50%
    12:00 +23°C° 0 mm 4 mps 761 mmHg 48%
    13:00 +23°C° 0 mm 4 mps 761 mmHg 45%
    14:00 +23°C° 0 mm 4 mps 761 mmHg 47%
    15:00 +24°C° 0 mm 3 mps 761 mmHg 48%
    16:00 +24°C° 0 mm 3 mps 761 mmHg 49%
    17:00 +22°C° 0 mm 3 mps 761 mmHg 55%
    18:00 +21°C° 0 mm 2 mps 761 mmHg 61%
    19:00 +21°C° 0 mm 1 mps 761 mmHg 67%
    20:00 +19°C° 0 mm 1 mps 761 mmHg 69%
    21:00 +16°C° 0 mm 1 mps 761 mmHg 71%
    22:00 +13°C° 0 mm 0 mps 761 mmHg 72%
    23:00 +14°C° 0 mm 1 mps 761 mmHg 72%

    29 June, Saturday

    Time Temperature Precipitation Wind Pressure Humidity
    00:00 +14°C° 0 mm 1 mps 761 mmHg 71%
    01:00 +14°C° 0 mm 1 mps 761 mmHg 70%
    02:00 +13°C° 0 mm 1 mps 761 mmHg 72%
    03:00 +13°C° 0 mm 1 mps 761 mmHg 74%
    04:00 +13°C° 0 mm 1 mps 761 mmHg 76%
    05:00 +15°C° 0 mm 1 mps 761 mmHg 74%
    06:00 +17°C° 0 mm 2 mps 761 mmHg 71%
    07:00 +18°C° 0 mm 2 mps 761 mmHg 68%
    08:00 +20°C° 0 mm 2 mps 761 mmHg 63%
    09:00 +22°C° 0 mm 3 mps 761 mmHg 59%
    10:00 +24°C° 0 mm 3 mps 761 mmHg 54%
    11:00 +25°C° 0 mm 3 mps 760 mmHg 53%
    12:00 +26°C° 0 mm 3 mps 760 mmHg 52%
    13:00 +27°C° 0 mm 3 mps 760 mmHg 51%
    14:00 +27°C° 0 mm 3 mps 759 mmHg 51%
    15:00 +27°C° 0 mm 3 mps 759 mmHg 52%
    16:00 +27°C° 0 mm 3 mps 759 mmHg 52%
    17:00 +26°C° 0 mm 2 mps 758 mmHg 58%
    18:00 +25°C° 0 mm 2 mps 758 mmHg 64%
    19:00 +25°C° 0 mm 1 mps 758 mmHg 70%
    20:00 +23°C° 0 mm 1 mps 758 mmHg 75%
    21:00 +21°C° 0 mm 1 mps 758 mmHg 79%
    22:00 +19°C° 0 mm 1 mps 758 mmHg 84%
    23:00 +19°C° 0 mm 1 mps 758 mmHg 83%

    30 June, Sunday

    Time Temperature Precipitation Wind Pressure Humidity
    00:00 +18°C° 0 mm 2 mps 757 mmHg 81%
    01:00 +18°C° 0 mm 2 mps 757 mmHg 80%
    02:00 +17°C° 0 mm 2 mps 757 mmHg 77%
    03:00 +17°C° 0 mm 3 mps 757 mmHg 74%
    04:00 +17°C° 0 mm 3 mps 756 mmHg 71%
    05:00 +18°C° 0 mm 3 mps 756 mmHg 68%
    06:00 +20°C° 0 mm 4 mps 756 mmHg 65%
    07:00 +21°C° 0 mm 4 mps 756 mmHg 63%
    08:00 +23°C° 0 mm 5 mps 756 mmHg 60%
    09:00 +26°C° 0 mm 5 mps 755 mmHg 57%
    10:00 +28°C° 0 mm 6 mps 755 mmHg 54%
    11:00 +29°C° 0 mm 6 mps 754 mmHg 52%
    12:00 +29°C° 0 mm 6 mps 754 mmHg 49%
    13:00 +30°C° 0 mm 6 mps 754 mmHg 47%
    14:00 +32°C° 0 mm 6 mps 753 mmHg 47%
    15:00 +32°C° 0 mm 5 mps 753 mmHg 48%
    16:00 +33°C° 0 mm 5 mps 752 mmHg 49%
    17:00 +30°C° 0 mm 4 mps 752 mmHg 55%
    18:00 +29°C° 0 mm 4 mps 752 mmHg 61%
    19:00 +27°C° 0 mm 4 mps 752 mmHg 66%
    20:00 +25°C° 0 mm 4 mps 753 mmHg 70%
    21:00 +22°C° 0 mm 4 mps 753 mmHg 73%
    22:00 +20°C° 0 mm 4 mps 754 mmHg 76%
    23:00 +19°C° 0 mm 3 mps 754 mmHg 79%

    1 July, Monday

    Time Temperature Precipitation Wind Pressure Humidity
    00:00 +17°C° 0 mm 3 mps 754 mmHg 82%
    01:00 +14°C° 0 mm 3 mps 754 mmHg 85%
    02:00 +14°C° 0 mm 3 mps 754 mmHg 88%
    03:00 +13°C° 0 mm 3 mps 754 mmHg 91%
    04:00 +13°C° 0 mm 3 mps 754 mmHg 94%
    05:00 +14°C° 0 mm 3 mps 755 mmHg 90%
    06:00 +16°C° 0 mm 3 mps 755 mmHg 86%
    07:00 +17°C° 0 mm 4 mps 755 mmHg 82%
    08:00 +18°C° 0 mm 4 mps 755 mmHg 77%
    09:00 +19°C° 0 mm 4 mps 755 mmHg 72%
    10:00 +20°C° 0 mm 4 mps 755 mmHg 67%
    11:00 +21°C° 0 mm 4 mps 755 mmHg 63%
    12:00 +22°C° 0 mm 4 mps 754 mmHg 59%
    13:00 +23°C° 0 mm 4 mps 754 mmHg 55%
    14:00 +25°C° 0 mm 4 mps 754 mmHg 55%
    15:00 +25°C° 0 mm 4 mps 753 mmHg 56%
    16:00 +25°C° 0 mm 4 mps 753 mmHg 56%
    17:00 +22°C° 0.5 mm 4 mps 753 mmHg 66%
    18:00 +20°C° 0.5 mm 4 mps 752 mmHg 76%
    19:00 +19°C° 0.5 mm 4 mps 752 mmHg 86%
    20:00 +18°C° 0.1 mm 4 mps 752 mmHg 87%
    21:00 +17°C° 0.1 mm 4 mps 753 mmHg 88%
    22:00 +15°C° 0.1 mm 4 mps 753 mmHg 89%
    23:00 +14°C° 0 mm 4 mps 753 mmHg 89%
    Show more